Temperature
21 22 22 23 24 24 22 21 20 21 21 21 21 21 23 24 24 24 23 23 23 23 22 22 22 21 20 20 19 19 18 17 17 16 16 15 15 15 14 14 13 13 13 13
22 23 23 23 24 24 24 23 22 22 22 21 22 23 23 24 24 23 23 23 23 23 23 22 22 21 21 20 19 19 18 18 17 17 16 16 15 15 14 14 13 13 13 13
19 21 22 21 22 23 22 20 20 20 20 20 20 21 23 24 24 24 24 24 23 23 23 23 22 22 21 20 20 19 18 18 17 17 16 16 15 15 14 14 14 13 13 13
18 20 21 21 21 22 21 19 19 19 19 19 20 23 24 25 25 25 25 24 24 24 23 23 22 22 21 20 20 19 18 18 17 17 16 16 15 15 15 14 14 14 13 13
17 18 20 21 20 20 20 18 17 18 18 19 21 22 22 23 24 25 25 25 25 24 24 23 22 22 21 20 20 19 19 18 18 17 16 16 16 15 15 15 14 14 13 13
17 18 19 20 20 20 20 18 17 17 17 18 19 18 19 22 23 24 24 24 24 24 23 23 22 22 21 21 20 19 19 19 18 17 17 16 16 16 15 15 14 14 14 13
16 17 18 18 18 19 19 18 16 17 17 18 16 17 19 21 22 23 23 23 24 23 23 23 22 21 21 20 20 20 19 18 18 17 17 16 16 15 15 15 14 14 14 14
15 16 17 17 17 17 16 16 16 17 18 18 18 18 19 20 21 21 22 22 22 22 22 22 22 21 21 20 20 19 18 18 17 17 16 16 16 15 15 15 14 14 14 14
15 15 16 16 16 17 17 17 17 18 18 18 18 17 18 19 19 20 20 21 21 21 21 21 20 20 20 20 19 18 18 17 17 16 16 15 15 15 15 14 14 14 14 14
14 15 15 16 17 18 18 18 18 18 18 18 17 17 17 18 18 18 19 19 19 20 20 19 19 19 19 19 18 17 17 17 16 16 15 15 15 14 14 14 14 14 13 13
14 15 15 16 17 18 18 18 17 17 17 17 16 16 16 16 17 17 17 18 18 18 18 18 18 18 17 17 17 17 16 16 15 15 15 14 14 14 13 13 13 13 13 13
15 15 14 16 18 18 17 17 17 17 16 16 16 16 16 16 16 16 16 16 16 16 16 16 16 16 16 16 15 15 15 15 14 14 14 13 13 13 13 13 13 13 13 13
18 17 17 17 18 17 17 17 16 16 16 15 15 15 15 15 15 15 15 15 15 15 15 15 15 14 14 14 14 14 14 13 13 13 13 13 12 12 12 13 13 13 13 13
18 17 16 16 16 16 16 16 16 15 15 15 15 15 15 14 14 14 14 14 14 13 13 13 13 13 13 13 13 13 12 12 12 12 12 12 12 12 12 12 12 12 12 12
17 17 16 16 16 16 16 16 15 15 15 14 14 14 14 14 13 13 13 13 13 12 12 12 12 12 12 12 12 12 12 11 11 11 11 11 11 11 11 11 11 11 12 12
16 16 16 15 15 15 15 15 14 14 14 14 14 13 13 13 13 12 12 12 12 12 11 11 11 11 11 11 11 11 11 11 10 10 10 10 10 10 10 10 11 11 11 11
15 15 15 15 15 15 14 14 14 14 14 13 13 13 13 12 12 12 11 11 11 11 11 11 11 11 11 10 10 10 10 10 10 10 10 10 9 10 10 10 10 10 10 11
15 15 15 14 14 14 14 14 13 13 13 13 12 12 12 12 11 11 11 11 11 11 11 10 10 10 10 10 10 10 10 9 9 9 9 9 9 9 9 9 9 9 10 10
14 14 14 14 14 13 13 13 13 12 12 12 12 12 11 11 11 11 11 11 11 11 10 10 10 10 10 10 10 10 9 9 9 9 9 8 8 8 9 9 9 9 9 9
14 14 13 13 13 13 12 12 12 12 12 11 11 11 11 11 11 11 11 11 11 10 10 10 10 10 10 10 10 9 9 9 8 8 8 8 8 8 8 8 8 8 8 9
13 13 12 12 12 12 12 11 11 11 11 11 11 11 11 11 11 11 11 11 10 10 10 10 10 10 10 9 9 9 9 8 8 8 8 7 7 7 7 8 8 8 8 8
12 12 12 11 11 11 11 11 11 11 11 11 11 11 11 11 11 11 10 10 10 10 10 10 9 9 9 9 9 8 8 8 7 7 7 7 7 7 7 7 7 7 7 8
11 11 11 11 11 11 11 11 11 11 10 10 10 10 10 10 10 10 10 10 10 9 9 9 9 9 9 8 8 8 8 7 7 7 6 6 6 6 6 6 7 7 7 7
11 11 11 11 11 10 10 10 10 10 10 10 10 10 10 9 9 9 9 9 9 9 9 8 8 8 8 8 8 7 7 7 6 6 6 6 6 5 5 6 6 6 6 7
11 11 10 10 10 10 10 10 10 9 9 9 9 9 9 9 8 8 8 8 8 8 8 8 8 7 7 7 7 7 6 6 6 5 5 5 5 5 5 5 5 5 6 6
10 10 10 10 10 9 9 9 9 9 9 8 8 8 8 8 8 8 7 7 7 7 7 7 7 7 6 6 6 6 6 5 5 5 5 4 4 4 4 5 5 5 5 6
9 9 9 9 9 9 9 8 8 8 8 7 7 7 7 7 7 7 7 7 6 6 6 6 6 6 6 5 5 5 5 4 4 4 4 4 4 4 4 4 4 5 5 5
Wind_Speed
6 6 4 5 7 6 6 8 9 10 9 12 13 13 11 10 10 10 11 13 15 15 13 12 12 11 11 11 10 10 10 10 10 9 9 8 8 7 7 7 7 7 6 6
5 5 3 5 8 7 6 5 5 4 6 8 8 7 7 9 11 12 13 15 15 15 14 14 14 13 11 11 10 10 11 10 9 9 8 8 8 8 7 7 7 6 7 7
5 7 4 5 6 3 1 4 2 0 5 3 3 8 10 11 12 13 14 14 15 16 16 16 15 14 14 12 10 11 11 10 9 9 9 9 8 8 8 8 7 7 7 7
1 4 4 6 3 2 6 6 6 3 4 3 3 6 6 7 10 12 13 14 15 14 14 13 13 12 12 11 11 11 11 10 9 9 9 9 8 8 8 6 7 7 8 8
2 2 6 5 4 3 2 3 8 7 7 6 4 5 4 2 3 9 12 12 13 14 13 13 13 13 12 11 11 11 11 11 10 10 9 9 9 9 7 6 7 7 7 8
3 3 5 5 6 6 3 1 6 7 9 9 8 4 3 6 3 2 5 7 9 10 9 11 12 11 12 12 11 13 13 12 10 10 10 10 10 9 7 7 8 8 8 9
4 4 6 4 7 5 3 3 3 3 6 8 4 1 4 5 4 2 0 3 6 8 9 11 10 11 11 10 12 12 9 8 8 9 10 10 9 7 7 7 8 8 9 9
3 3 6 3 2 2 5 3 2 2 4 5 4 6 7 7 7 7 6 3 2 5 5 5 8 11 10 10 10 7 7 7 7 8 7 7 7 7 7 8 8 9 9 9
5 6 4 3 3 3 4 4 3 3 5 5 5 6 6 7 8 7 7 5 4 3 2 1 3 7 9 8 6 5 6 6 5 6 6 6 6 7 6 6 7 8 8 9
2 3 3 4 3 2 3 3 3 5 6 7 6 4 6 7 7 8 7 6 5 6 5 2 0 3 5 4 5 5 5 5 4 4 5 6 6 6 6 7 8 9 9 10
3 2 1 5 4 3 3 5 8 9 9 8 8 8 7 7 7 7 7 7 7 7 6 4 3 2 0 2 5 5 4 4 4 5 5 6 6 7 8 9 10 11 10 10
8 9 7 5 4 5 8 8 8 10 11 9 9 8 8 7 6 7 7 8 9 9 8 7 7 5 4 1 2 3 3 3 4 4 5 5 6 8 12 14 17 18 19 16
6 8 6 4 5 7 9 9 10 11 10 9 9 8 8 7 7 7 8 8 8 7 7 6 7 7 6 4 2 0 2 3 3 4 5 6 6 7 10 11 14 16 18 18
12 12 10 8 8 10 11 11 11 11 10 9 8 7 7 7 7 8 7 6 6 6 6 6 6 7 7 5 4 3 3 4 5 5 6 6 7 8 8 9 10 10 12 15
10 11 11 10 11 10 10 11 11 9 9 8 7 7 7 6 6 5 5 5 6 6 6 5 6 6 6 5 4 4 4 4 5 5 6 7 7 8 8 9 9 10 9 9
11 11 12 12 11 10 10 10 9 7 6 6 6 5 4 4 3 3 3 4 4 4 3 3 4 5 5 4 4 4 5 8 8 6 6 7 7 8 8 9 9 8 8 9
11 9 10 9 9 9 8 7 6 5 5 4 3 3 3 4 3 3 3 2 1 2 2 2 3 4 3 3 3 3 4 7 10 8 7 8 8 8 8 8 8 8 8 9
10 8 8 9 8 8 7 6 6 5 3 2 2 3 2 2 3 4 4 4 3 4 4 5 5 4 3 3 3 4 4 5 6 7 7 8 8 8 8 8 9 9 9 9
10 9 9 9 8 7 5 4 3 2 2 2 2 2 3 4 4 5 5 4 4 5 7 8 8 5 5 6 5 4 5 6 7 7 7 9 8 7 7 8 9 9 9 8
9 8 9 8 7 6 5 3 3 3 3 3 3 4 5 6 6 6 5 5 6 7 8 8 7 5 6 7 7 5 6 7 7 7 7 7 7 8 8 9 9 8 8 7
9 8 8 7 6 5 4 4 3 5 5 5 4 5 6 7 7 5 4 6 8 9 8 8 5 5 5 6 8 6 6 6 7 7 7 7 7 7 8 9 9 8 8 7
6 5 5 4 4 4 5 4 4 5 6 6 6 6 6 7 7 6 6 6 8 9 6 4 4 6 7 8 5 6 6 6 6 6 6 7 7 7 8 9 8 8 7 6
3 3 3 3 3 4 6 6 7 6 7 7 7 7 7 6 5 4 6 6 5 6 4 4 6 9 10 6 4 5 6 6 6 6 6 7 7 7 8 8 7 7 6 6
2 3 3 4 4 5 6 7 7 6 6 6 6 5 4 3 4 4 4 6 7 6 4 6 8 8 7 4 4 4 5 5 5 6 6 7 7 7 7 7 7 7 6 6
3 4 4 5 5 5 5 6 6 6 5 4 5 6 4 3 3 5 4 6 8 6 5 6 7 7 4 3 4 4 4 4 4 5 5 6 6 7 7 7 6 6 6 5
3 4 4 3 3 3 2 3 3 4 4 4 5 5 5 5 5 5 5 6 7 6 4 4 4 4 4 4 4 4 4 4 5 5 6 6 7 7 7 7 7 6 5 5
4 4 3 4 3 3 3 3 3 4 4 4 5 6 6 6 5 5 6 5 4 4 4 4 4 4 4 4 4 4 4 5 5 6 6 6 6 7 7 7 6 5 5 5
Wind_Direction
230 228 205 240 266 256 229 210 207 233 221 223 210 202 199 193 184 174 172 173 174 174 174 173 173 176 177 177 177 171 170 179 191 195 196 198 203 209 214 216 221 221 226 234
293 277 281 286 282 273 265 258 236 234 243 241 211 190 182 177 168 169 175 177 176 174 173 176 179 181 179 179 177 170 174 187 192 191 194 200 207 213 217 224 228 225 227 233
283 306 358 293 269 258 70 25 41 328 272 297 175 181 182 176 168 171 174 176 178 180 181 183 185 181 183 183 176 174 182 188 189 191 198 207 211 211 218 223 225 227 232 234
282 358 266 250 311 59 100 51 32 19 328 327 236 207 187 174 172 175 176 180 185 187 188 188 185 183 181 175 175 182 188 194 195 195 204 209 209 215 219 218 220 228 235 238
149 237 274 303 345 3 84 40 3 19 6 359 14 55 24 333 189 182 182 185 189 190 189 186 186 184 175 178 181 187 196 202 203 199 203 207 213 220 220 217 225 228 233 238
156 180 235 264 313 315 102 47 336 23 29 15 31 58 310 321 319 195 179 181 183 182 176 183 191 178 176 185 188 199 205 207 204 200 203 210 215 218 217 217 228 232 240 241
181 207 250 272 314 349 129 227 287 26 50 40 39 252 288 324 339 339 101 183 168 164 178 193 182 170 180 186 201 209 205 201 201 203 208 214 219 220 222 226 234 239 245 249
145 198 248 303 7 153 193 203 214 115 75 65 36 360 9 19 14 12 21 22 125 154 183 185 169 170 180 196 207 194 185 192 202 209 215 218 219 230 231 230 239 247 251 260
183 214 254 284 225 212 168 183 202 130 109 94 54 22 22 30 25 20 21 25 38 100 125 106 167 175 189 209 190 170 173 192 207 216 224 224 222 233 239 237 241 250 250 256
155 242 263 273 246 198 184 171 134 100 94 95 94 72 45 41 35 29 25 26 35 56 62 46 92 184 203 191 156 159 182 202 210 221 239 244 242 239 242 246 249 254 254 255
156 189 258 276 246 189 143 110 87 77 82 88 89 73 61 53 41 34 32 34 47 53 47 25 24 32 81 163 157 171 194 213 227 235 245 256 259 253 252 251 248 248 254 250
191 187 176 212 213 139 114 101 97 93 82 74 78 74 64 54 46 45 43 41 44 43 41 34 35 26 7 8 154 172 213 246 256 259 263 267 275 283 268 262 267 258 253 252
143 143 135 109 97 105 103 100 93 90 86 76 65 67 66 57 47 47 45 45 47 46 44 41 36 23 3 1 41 127 253 266 270 273 274 276 275 277 288 291 281 272 264 260
107 106 92 88 91 89 94 94 90 82 76 74 67 60 58 53 47 46 41 39 44 45 40 36 29 10 352 359 11 352 319 296 287 278 277 277 276 276 275 283 290 288 280 269
94 103 112 104 94 89 89 87 80 73 67 59 55 53 52 53 48 41 33 38 43 38 26 25 20 352 342 1 5 347 333 317 302 292 286 283 282 281 281 283 280 280 282 283
94 88 91 93 91 87 83 82 81 73 68 60 49 42 44 51 44 30 26 42 46 24 355 357 346 324 331 353 353 339 325 319 319 306 299 297 294 291 289 287 283 278 276 275
98 94 95 92 87 83 80 83 86 80 68 58 43 31 37 37 20 356 331 329 331 295 279 278 287 301 327 348 343 318 310 311 315 314 303 296 294 292 290 288 286 281 278 275
100 104 104 102 99 89 76 71 71 68 61 38 29 23 8 343 308 286 281 288 311 310 286 266 262 268 282 285 285 286 290 294 299 299 298 296 296 295 293 293 292 290 286 283
91 87 83 83 86 85 80 72 64 49 19 359 347 307 282 275 271 270 273 283 289 285 279 270 265 263 269 271 276 274 284 291 295 296 297 298 302 301 299 294 290 288 286 279
77 74 71 68 67 68 61 42 22 346 319 309 302 300 294 285 278 276 274 271 258 251 257 264 263 263 268 273 278 274 281 288 293 298 299 299 301 302 301 299 296 293 288 279
64 62 61 57 48 38 23 5 347 322 308 303 290 278 274 275 276 275 270 279 278 273 273 275 267 266 273 277 282 279 282 287 292 295 299 301 301 302 301 300 298 295 288 282
57 52 46 39 25 355 332 323 314 305 302 296 286 281 282 284 287 288 277 264 274 288 289 279 273 278 284 287 283 283 286 290 294 298 301 303 304 303 302 301 300 299 297 292
41 31 8 345 322 305 310 310 305 300 294 290 288 289 286 284 285 287 295 293 293 295 290 280 285 292 296 295 288 287 291 296 300 302 304 305 305 303 302 305 307 305 303 305
333 314 301 297 308 316 308 301 303 305 306 306 308 311 311 316 317 301 280 303 312 305 291 291 299 303 307 305 297 294 297 300 302 304 306 308 311 313 312 311 311 311 312 314
299 300 302 308 307 294 286 301 323 334 340 338 334 336 332 312 296 302 307 311 314 313 306 309 320 323 325 319 309 306 305 305 309 311 315 320 322 319 316 317 321 322 322 326
308 302 296 288 284 291 319 349 348 338 341 333 324 322 320 317 314 318 319 320 319 318 324 328 332 336 335 327 325 328 329 331 333 333 328 326 324 324 324 326 330 335 341 351
341 340 343 346 345 351 357 354 340 327 321 317 310 309 312 317 320 322 322 322 329 341 345 345 350 350 344 344 348 351 352 348 340 335 331 327 325 325 327 329 335 350 2 9
Height
1486 1481 1482 1482 1479 1477 1483 1488 1494 1487 1481 1473 1468 1468 1469 1471 1474 1477 1481 1484 1487 1490 1494 1498 1502 1505 1507 1509 1511 1512 1513 1514 1515 1516 1517 1517 1517 1517 1517 1517 1517 1517 1516 1515
1485 1477 1478 1480 1475 1472 1473 1474 1476 1475 1474 1464 1462 1464 1467 1469 1472 1474 1477 1481 1484 1488 1491 1495 1498 1501 1503 1505 1507 1509 1510 1511 1512 1513 1513 1514 1514 1514 1514 1514 1513 1513 1512 1511
1495 1483 1482 1488 1476 1472 1475 1476 1476 1481 1476 1465 1463 1463 1464 1466 1469 1471 1474 1478 1481 1485 1488 1491 1494 1497 1499 1501 1504 1505 1506 1508 1509 1509 1510 1510 1510 1510 1510 1510 1509 1508 1508 1507
1498 1494 1500 1485 1470 1468 1474 1478 1475 1473 1470 1465 1463 1461 1463 1466 1467 1469 1472 1476 1479 1482 1485 1488 1491 1494 1496 1498 1500 1501 1503 1504 1505 1505 1506 1506 1506 1506 1506 1506 1505 1504 1503 1502
1500 1501 1492 1477 1471 1472 1475 1481 1477 1472 1469 1465 1462 1462 1465 1467 1468 1469 1471 1473 1476 1479 1482 1485 1487 1490 1492 1494 1496 1497 1498 1500 1501 1501 1502 1502 1502 1502 1502 1501 1500 1499 1498 1497
1497 1500 1499 1483 1472 1469 1473 1484 1478 1472 1470 1468 1465 1472 1472 1469 1470 1470 1470 1472 1474 1476 1479 1481 1483 1486 1488 1490 1491 1492 1494 1495 1497 1497 1498 1498 1498 1497 1497 1496 1495 1494 1493 1492
1495 1496 1488 1477 1472 1470 1484 1484 1477 1473 1471 1471 1472 1474 1472 1470 1470 1470 1470 1471 1472 1473 1475 1477 1480 1482 1484 1485 1487 1488 1490 1491 1492 1493 1493 1493 1493 1493 1492 1491 1490 1489 1487 1486
1495 1498 1492 1475 1473 1476 1478 1474 1474 1472 1472 1472 1472 1471 1469 1469 1470 1469 1469 1470 1470 1471 1472 1474 1476 1478 1479 1480 1482 1484 1485 1486 1487 1488 1489 1489 1488 1487 1486 1486 1484 1483 1481 1480
1486 1487 1477 1474 1473 1472 1472 1473 1473 1471 1472 1473 1474 1474 1473 1471 1471 1471 1470 1470 1471 1471 1472 1473 1474 1475 1476 1478 1480 1481 1481 1482 1483 1484 1484 1484 1483 1482 1481 1480 1478 1476 1475 1473
1480 1477 1475 1474 1474 1473 1473 1473 1474 1474 1474 1475 1476 1476 1475 1473 1472 1472 1471 1471 1471 1470 1470 1471 1472 1473 1475 1476 1477 1478 1478 1479 1479 1479 1479 1478 1477 1476 1475 1473 1472 1470 1468 1466
1477 1475 1475 1474 1474 1474 1474 1475 1475 1476 1476 1477 1477 1477 1476 1475 1474 1473 1472 1471 1471 1470 1470 1471 1471 1472 1473 1473 1474 1474 1475 1475 1475 1474 1474 1473 1471 1470 1468 1467 1466 1463 1461 1459
1470 1468 1471 1472 1473 1474 1475 1477 1478 1478 1478 1479 1479 1478 1478 1477 1476 1475 1474 1473 1472 1471 1471 1471 1470 1470 1470 1470 1471 1471 1471 1471 1470 1469 1468 1467 1465 1463 1461 1460 1458 1456 1453 1452
1459 1465 1469 1472 1474 1475 1477 1478 1479 1480 1480 1481 1481 1481 1480 1479 1478 1477 1476 1474 1473 1473 1472 1472 1471 1470 1469 1468 1468 1467 1467 1466 1465 1464 1463 1461 1459 1456 1453 1451 1449 1447 1445 1443
1462 1465 1470 1473 1476 1478 1480 1481 1481 1482 1483 1483 1483 1483 1482 1481 1480 1478 1477 1476 1475 1474 1473 1472 1470 1469 1468 1466 1465 1464 1463 1462 1461 1459 1457 1455 1452 1450 1447 1444 1440 1438 1437 1435
1467 1468 1472 1475 1478 1480 1482 1482 1483 1484 1484 1485 1485 1484 1483 1482 1481 1479 1478 1477 1475 1474 1472 1471 1469 1468 1467 1465 1463 1462 1460 1458 1456 1454 1451 1448 1445 1443 1440 1437 1433 1430 1428 1426
1472 1474 1475 1477 1479 1482 1483 1483 1484 1485 1485 1485 1485 1484 1483 1482 1481 1479 1478 1476 1474 1473 1471 1469 1468 1466 1465 1463 1461 1459 1456 1454 1451 1448 1445 1442 1438 1435 1432 1429 1426 1423 1420 1418
1474 1477 1479 1481 1482 1483 1484 1485 1486 1486 1486 1486 1485 1484 1483 1481 1480 1478 1477 1475 1473 1471 1470 1468 1466 1464 1462 1460 1458 1455 1452 1449 1446 1443 1439 1435 1432 1429 1425 1422 1418 1415 1412 1411
1479 1481 1482 1483 1484 1485 1486 1486 1486 1486 1486 1486 1485 1483 1482 1480 1478 1476 1475 1473 1471 1469 1467 1465 1463 1461 1459 1457 1454 1451 1448 1444 1440 1437 1433 1429 1426 1422 1418 1415 1411 1408 1405 1403
1482 1483 1484 1485 1485 1486 1486 1486 1486 1486 1485 1484 1483 1481 1479 1478 1476 1474 1472 1470 1468 1465 1464 1462 1460 1457 1455 1452 1449 1446 1442 1438 1435 1431 1427 1423 1419 1416 1412 1408 1404 1401 1398 1395
1484 1485 1485 1486 1486 1486 1486 1486 1485 1484 1483 1482 1480 1478 1476 1474 1473 1470 1468 1466 1464 1462 1459 1457 1455 1453 1450 1447 1444 1440 1437 1433 1429 1425 1422 1418 1413 1409 1405 1401 1397 1394 1391 1388
1485 1486 1486 1486 1486 1486 1485 1484 1483 1482 1480 1478 1477 1475 1473 1471 1469 1466 1464 1461 1459 1457 1455 1452 1450 1447 1444 1441 1438 1435 1431 1427 1423 1419 1416 1411 1407 1403 1399 1395 1391 1387 1384 1381
1486 1486 1486 1485 1485 1484 1483 1482 1480 1478 1477 1475 1473 1471 1468 1466 1464 1462 1459 1457 1454 1452 1449 1447 1444 1442 1439 1436 1432 1429 1425 1421 1417 1414 1410 1405 1401 1397 1393 1389 1385 1381 1378 1376
1486 1485 1484 1483 1483 1481 1480 1479 1477 1475 1473 1471 1468 1466 1464 1461 1459 1457 1454 1452 1449 1446 1444 1441 1439 1436 1433 1429 1426 1423 1419 1415 1412 1408 1404 1400 1395 1391 1387 1383 1379 1376 1374 1371
1484 1483 1482 1481 1480 1478 1476 1475 1473 1471 1469 1467 1464 1462 1460 1457 1455 1452 1450 1447 1444 1442 1439 1436 1433 1430 1427 1423 1420 1417 1413 1410 1406 1402 1398 1394 1390 1386 1382 1378 1375 1372 1370 1367
1482 1480 1479 1478 1476 1474 1473 1471 1469 1467 1465 1463 1461 1458 1456 1453 1451 1448 1445 1442 1439 1436 1433 1430 1427 1424 1421 1418 1415 1411 1408 1404 1400 1397 1393 1389 1385 1382 1378 1374 1371 1369 1366 1364
1479 1477 1476 1474 1473 1471 1469 1467 1465 1463 1461 1459 1456 1454 1451 1448 1446 1442 1440 1437 1434 1431 1428 1426 1422 1419 1416 1413 1410 1406 1403 1399 1395 1392 1388 1385 1381 1378 1374 1371 1369 1367 1364 1362
1476 1474 1473 1471 1469 1468 1466 1464 1462 1460 1457 1455 1452 1449 1446 1444 1441 1438 1435 1432 1429 1426 1423 1421 1418 1415 1412 1409 1405 1402 1398 1395 1391 1388 1384 1380 1377 1374 1371 1369 1367 1365 1363 1362